Vertical_Velocity
-5 -5 -2 -3 -2 -1 -0 1 -17 5 7 3 -16 -5 -3 -2 0 -1 -5 -2 -3 -1 1 -1 -4 1 2 0 -2 -1 2 -1 3 -1 1 2 1 1 2 -3 -2 2 2 -6
-2 -3 -4 -2 -4 -6 -2 -5 -6 -7 1 -15 -2 -8 -1 -3 -0 -5 -1 0 -5 -5 -12 -8 -5 -6 -1 -3 -2 2 3 5 -0 2 -2 -8 -6 4 1 1 7 -4 -6 -8
-2 -0 -2 -4 -5 -6 -0 -2 -4 -3 -7 -3 -1 2 -3 -3 -2 -1 -4 -3 -2 -2 -5 -2 -1 7 3 -1 -1 2 1 -2 -1 -10 -10 3 1 2 3 1 2 -1 -3 -3
-3 -1 2 -3 -4 -7 -1 -5 -2 -1 -3 -7 -2 -4 0 1 -3 -1 -1 0 -0 -0 -1 -5 -1 -0 -4 3 5 -1 -2 -3 0 -3 -4 -2 1 0 -1 1 2 2 -1 -3
-5 -3 -4 -0 -3 -5 3 -8 -9 -4 2 1 -1 -2 -1 -1 0 -3 1 2 1 -0 2 5 1 -2 -0 5 4 3 5 1 0 1 0 -0 -5 -4 0 -1 -5 -1 -2 -4
-4 -6 -4 -2 -1 -2 -8 -5 -2 -5 -5 -1 -0 -1 -1 -1 -2 -0 -3 -4 -2 1 -0 -2 -0 -1 5 -4 -7 -5 -0 2 3 0 -1 -6 -5 -4 -4 -2 1 0 -7 -3
-1 -5 -7 -4 -3 -6 -4 -1 -1 -2 -3 -5 -3 1 -2 -1 0 -2 1 -0 -2 -2 -2 -2 -4 -1 -1 -9 -6 3 -8 -5 0 0 2 0 -3 -5 -2 -1 1 -1 -1 -2
-2 -1 -6 -6 -1 -3 -4 -4 -5 -4 -3 -3 -5 -3 2 -0 -3 -1 -1 -1 1 -2 0 -0 -0 -1 1 -3 -3 2 1 6 1 0 1 -0 -1 -6 -7 -1 0 3 5 0
-0 -0 0 -5 -6 2 -4 -3 -1 -5 -3 -1 1 -4 -4 0 -0 -1 -0 1 -1 0 -1 -0 -2 -2 -1 -3 -1 1 1 -5 -4 -2 1 -3 1 -0 4 1 -22 -8 -1 2
1 0 0 -6 2 -12 4 -6 -3 2 -4 -3 2 2 -2 -1 -0 -1 1 -1 0 -0 1 -1 -1 -3 -1 -3 -0 -2 -1 -1 -5 -1 -0 -3 3 3 1 1 -11 -1 1 1
-4 -2 2 -4 -2 1 -12 -2 -2 -6 -4 -3 -6 -1 1 -1 -0 -0 1 -2 -1 0 -0 -1 -0 1 -1 -1 -2 -2 -3 -3 -2 1 -0 -10 3 -3 4 4 4 2 -2 -0
-1 0 -0 -1 -10 -0 -4 -5 -3 -0 0 -5 2 -0 1 -1 -4 -1 0 0 -1 1 1 1 -1 -1 -1 -0 -2 -1 -5 -0 -2 -4 -6 -6 -6 -3 -3 -4 -0 3 0 2
3 3 1 -4 -1 -7 -1 -6 -6 -6 -0 2 -4 -3 -1 -1 -0 -2 -2 2 1 -1 -1 2 0 -1 -1 -1 -3 0 -2 1 -8 3 -6 1 -10 -5 -2 -2 -2 -4 -3 1
1 -0 4 1 -4 -4 -2 -3 -4 1 -3 -3 -2 -2 -3 -0 -2 1 -1 2 3 1 -0 1 3 -1 -1 -3 -2 -3 2 1 2 -6 -2 -3 -1 -1 -6 -4 -5 -4 -2 -2
2 5 1 2 -5 -7 -6 -4 -5 -5 3 -4 -8 -2 1 -2 -1 -2 -1 -0 3 2 -0 -0 1 0 2 0 -2 -11 6 1 -4 -3 -3 -1 2 -3 -3 -1 -2 -2 -3 -3
0 5 -0 2 2 -1 -4 -8 -1 -5 4 -1 -10 -11 -5 -1 -1 -1 -2 -3 -1 2 1 0 -2 4 1 -1 -8 3 -2 0 -2 -1 1 2 -5 -1 10 -0 4 6 2 -2
3 1 3 4 3 -1 -2 -2 -5 2 -5 0 -1 -8 -1 1 -4 1 1 -3 -2 3 -1 -4 -1 3 4 -3 -13 1 -0 -1 -1 -2 -0 1 3 3 -8 -9 -2 -8 1 1
5 2 2 1 -0 0 -6 -8 -5 4 8 3 -0 -1 -3 0 2 -0 1 -2 -2 -2 -1 -5 2 -1 3 -14 2 1 -1 -2 2 1 -1 3 2 -1 1 1 -0 5 -2 0
5 3 3 6 3 2 -6 0 3 3 5 4 -6 -1 3 1 3 7 3 2 0 -1 -4 -1 2 -1 -17 6 -1 -1 2 -0 -1 2 -1 0 2 2 2 1 1 -2 0 -1
1 8 12 -1 -8 5 1 -4 2 -3 -4 -11 -10 6 8 11 4 10 9 1 -1 -1 -2 1 -3 -25 10 2 2 2 1 -0 -2 -1 4 -2 1 5 4 -1 -0 1 -3 -3
1 -7 1 4 0 1 5 2 3 1 -11 -6 -5 3 2 3 7 9 8 3 -1 -3 -4 4 -3 -23 -3 -5 -2 -1 -2 -4 -3 -5 0 1 1 -3 3 4 -3 -2 2 -2
6 17 13 10 3 6 -0 6 -1 -11 -1 -6 3 2 -3 3 5 0 1 6 -2 2 -1 -3 -6 -5 -6 -2 -2 1 -2 -3 -3 -3 -4 -8 -2 3 3 2 3 -1 1 2
25 9 13 2 2 2 1 -6 -3 -12 -1 -2 -2 -3 3 3 5 2 -1 3 5 5 1 -5 -10 -3 -0 0 -0 -1 -2 -0 3 -2 -4 -4 1 5 3 4 3 0 -1 1
32 -0 9 -2 -4 -0 -28 -12 5 4 -1 1 2 0 5 3 1 6 1 1 -1 2 -2 -13 -3 -1 -1 1 -0 -1 -3 0 -3 -3 -3 -2 4 6 3 1 3 1 -3 1
3 1 -5 -27 -6 -9 2 2 -3 -2 -1 -3 3 5 -1 1 8 0 4 1 -0 -3 -9 -3 2 1 -1 -3 -2 2 1 -0 -4 -5 -3 -4 -1 3 -0 4 3 3 1 -0
4 -3 -24 -17 -8 6 -6 -3 5 -5 -2 7 12 8 6 4 3 -1 -0 2 -8 -4 1 4 2 0 3 4 2 -0 0 -2 -1 -2 -0 -2 -2 5 -0 -0 3 1 -1 -2
-3 -26 1 5 11 4 2 4 2 1 4 4 6 -0 -4 1 2 -6 -8 -11 2 2 3 4 3 2 1 -4 -2 0 1 -1 -0 -1 1 2 1 0 1 7 -2 0 -1 -1
Height
3079 3071 3064 3057 3050 3046 3043 3040 3034 3030 3027 3021 3012 3010 3011 3013 3013 3010 3010 3009 3009 3009 3010 3013 3013 3016 3017 3021 3023 3025 3027 3030 3033 3036 3038 3042 3044 3047 3049 3052 3056 3057 3059 3062
3082 3074 3066 3059 3053 3048 3045 3041 3037 3033 3030 3022 3019 3019 3021 3019 3018 3015 3014 3014 3015 3014 3012 3014 3014 3015 3018 3021 3024 3025 3027 3029 3035 3040 3043 3040 3041 3045 3047 3050 3052 3053 3057 3058
3085 3076 3069 3062 3054 3050 3047 3043 3039 3036 3032 3029 3026 3025 3024 3023 3021 3020 3019 3018 3017 3018 3017 3016 3019 3020 3022 3022 3025 3026 3027 3028 3029 3031 3030 3039 3039 3040 3043 3047 3051 3051 3051 3053
3089 3081 3072 3065 3057 3052 3051 3045 3042 3040 3037 3034 3031 3028 3028 3027 3026 3025 3022 3021 3021 3020 3019 3021 3023 3023 3024 3025 3025 3027 3028 3028 3031 3032 3033 3034 3035 3038 3042 3044 3047 3049 3049 3050
3089 3082 3075 3070 3063 3058 3054 3047 3047 3044 3041 3038 3035 3032 3030 3029 3028 3026 3025 3024 3022 3022 3023 3023 3023 3024 3024 3024 3028 3027 3027 3028 3030 3032 3033 3034 3035 3035 3037 3040 3042 3044 3046 3048
3089 3084 3078 3071 3065 3059 3053 3052 3048 3046 3046 3043 3040 3037 3035 3032 3030 3029 3028 3026 3025 3025 3024 3024 3024 3025 3024 3026 3027 3027 3027 3027 3029 3029 3030 3033 3033 3029 3031 3034 3036 3039 3040 3043
3087 3083 3079 3072 3065 3060 3057 3053 3051 3047 3045 3044 3043 3040 3037 3035 3032 3031 3029 3028 3026 3027 3025 3025 3024 3024 3024 3024 3022 3021 3023 3024 3026 3026 3027 3029 3019 3023 3025 3027 3028 3032 3034 3038
3085 3081 3078 3073 3067 3061 3058 3054 3051 3047 3045 3043 3042 3040 3038 3036 3034 3032 3030 3028 3028 3025 3025 3024 3024 3025 3024 3021 3021 3021 3021 3023 3023 3024 3022 3019 3016 3016 3019 3021 3022 3023 3026 3029
3082 3079 3075 3072 3068 3062 3058 3055 3050 3047 3045 3042 3039 3038 3038 3037 3034 3033 3031 3029 3027 3025 3023 3022 3022 3021 3022 3021 3018 3019 3020 3023 3026 3024 3023 3020 3013 3014 3015 3016 3015 3018 3019 3022
3078 3075 3072 3069 3066 3062 3056 3053 3049 3046 3042 3041 3039 3037 3036 3036 3034 3032 3030 3028 3027 3025 3023 3021 3019 3019 3019 3018 3017 3017 3019 3020 3021 3021 3020 3014 3012 3012 3012 3016 3014 3011 3013 3016
3072 3071 3069 3066 3063 3060 3057 3051 3048 3044 3040 3037 3036 3034 3033 3032 3032 3030 3029 3028 3025 3023 3022 3020 3018 3016 3015 3015 3014 3014 3015 3015 3013 3014 3016 3014 3010 3010 3012 3009 3006 3007 3008 3011
3065 3064 3062 3061 3060 3057 3054 3051 3045 3041 3038 3036 3032 3030 3029 3028 3027 3026 3025 3025 3022 3021 3019 3018 3016 3014 3013 3011 3010 3009 3011 3010 3010 3011 3008 3008 3007 3008 3007 3007 3006 3006 3006 3006
3057 3056 3054 3054 3053 3052 3050 3047 3042 3038 3035 3031 3028 3027 3026 3023 3020 3020 3019 3019 3019 3017 3016 3015 3013 3012 3010 3007 3005 3004 3004 3003 3001 3002 3000 3000 3001 3003 3003 3003 3003 3003 3004 3003
3048 3048 3046 3045 3046 3045 3044 3042 3039 3034 3030 3027 3026 3022 3019 3016 3013 3012 3011 3012 3013 3013 3012 3011 3009 3007 3006 3002 3001 2999 2999 2996 2995 2994 2995 2995 2993 2993 2993 2994 2995 2996 2997 2997
3040 3040 3039 3037 3037 3038 3037 3037 3033 3030 3028 3020 3016 3013 3011 3008 3006 3006 3005 3006 3007 3007 3007 3006 3005 3002 3000 2996 2994 2990 2989 2988 2988 2986 2987 2987 2987 2987 2985 2985 2986 2987 2988 2990
3029 3030 3029 3030 3029 3029 3029 3029 3027 3023 3017 3011 3004 3002 2999 2996 2995 2996 2997 2999 3001 3002 3001 3001 2998 2997 2996 2991 2986 2986 2983 2983 2982 2982 2982 2981 2982 2983 2982 2984 2985 2984 2984 2984
3018 3019 3018 3020 3020 3021 3022 3022 3018 3015 3012 3007 3000 2993 2990 2988 2986 2986 2987 2991 2995 2996 2994 2994 2993 2992 2990 2984 2981 2982 2980 2979 2978 2977 2977 2977 2978 2978 2978 2979 2979 2980 2980 2980
3006 3006 3006 3007 3009 3010 3013 3013 3009 3008 3004 3000 2996 2987 2983 2984 2982 2979 2980 2983 2987 2988 2988 2987 2986 2985 2983 2978 2977 2976 2975 2974 2974 2972 2972 2972 2972 2973 2974 2974 2974 2975 2974 2975
2993 2994 2995 2998 2997 2999 3003 3002 3000 2998 3001 2990 2986 2984 2981 2974 2973 2972 2973 2976 2979 2980 2979 2979 2979 2975 2973 2974 2972 2971 2970 2969 2969 2967 2966 2966 2966 2967 2967 2968 2968 2968 2969 2968
2977 2980 2985 2983 2987 2993 2995 2989 2987 2984 2984 2978 2972 2973 2972 2973 2970 2968 2968 2968 2971 2970 2971 2970 2966 2963 2968 2967 2965 2964 2964 2964 2963 2963 2962 2960 2961 2961 2961 2961 2962 2961 2961 2962
2957 2964 2972 2974 2980 2984 2983 2981 2976 2974 2972 2966 2963 2962 2962 2965 2967 2967 2965 2961 2962 2962 2963 2963 2956 2954 2959 2958 2958 2958 2959 2958 2958 2958 2957 2955 2955 2955 2955 2954 2954 2956 2955 2954
2949 2958 2963 2968 2972 2974 2973 2965 2965 2966 2963 2957 2954 2955 2955 2959 2962 2963 2963 2958 2956 2953 2953 2955 2948 2948 2948 2950 2951 2952 2952 2951 2951 2950 2951 2951 2949 2947 2947 2947 2946 2946 2947 2946
2942 2947 2954 2960 2960 2957 2952 2950 2949 2953 2951 2951 2950 2952 2953 2954 2957 2958 2958 2955 2951 2947 2944 2941 2940 2941 2942 2943 2944 2945 2944 2943 2943 2943 2942 2941 2940 2938 2938 2939 2938 2937 2938 2937
2929 2934 2943 2942 2939 2932 2935 2938 2943 2946 2947 2947 2946 2946 2949 2950 2950 2949 2948 2947 2946 2941 2936 2931 2932 2934 2935 2936 2937 2936 2936 2936 2936 2935 2934 2932 2931 2929 2929 2930 2929 2928 2928 2928
2914 2920 2922 2921 2923 2925 2929 2932 2935 2938 2938 2939 2939 2939 2943 2944 2945 2942 2941 2939 2934 2930 2926 2926 2927 2928 2928 2929 2929 2929 2928 2927 2927 2925 2924 2923 2923 2922 2920 2919 2919 2918 2917 2916
2899 2901 2906 2907 2914 2915 2920 2926 2928 2930 2930 2931 2932 2933 2935 2936 2935 2933 2933 2930 2926 2923 2923 2922 2921 2922 2922 2922 2922 2921 2919 2917 2916 2915 2914 2912 2912 2911 2910 2909 2909 2908 2907 2906
2884 2889 2893 2901 2906 2911 2916 2918 2920 2921 2922 2923 2925 2924 2927 2926 2925 2925 2924 2921 2920 2919 2918 2917 2915 2914 2913 2913 2912 2910 2908 2907 2905 2904 2903 2901 2900 2899 2899 2899 2897 2897 2896 2896